Location: Forst
(46.9333°N, 15.4333°E)
Time: 19:43:15
(UTC+00:00)

ISS - Visible Passes

Search period start: 24 September 2021 00:00
Search period end: 04 October 2021 00:00
Orbit: 419 x 423 km, 51.6° (Epoch: 24 September)

Date Brightness Start Highest point End Pass type
(mag) Time Alt. Az. Time Alt. Az. Time Alt. Az.
24 Sep -2.9 17:25:19 10° W 17:28:35 48° NNW 17:31:54 10° ENE visible
24 Sep -2.4 19:02:43 10° WNW 19:05:32 35° N 19:05:32 35° N visible
25 Sep -2.5 18:15:42 10° WNW 18:18:51 35° N 18:20:21 23° NE visible
25 Sep -0.5 19:52:45 10° WNW 19:53:21 14° WNW 19:53:21 14° WNW visible
26 Sep -2.6 17:28:39 10° WNW 17:31:49 36° N 17:34:59 10° ENE visible
26 Sep -2.3 19:05:49 10° WNW 19:08:10 35° NNW 19:08:10 35° NNW visible
27 Sep -2.8 18:18:53 10° WNW 18:22:05 39° N 18:22:59 32° NE visible
27 Sep -0.3 19:55:45 10° WNW 19:55:58 11° WNW 19:55:58 11° WNW visible
28 Sep -2.7 17:31:54 10° WNW 17:35:04 36° N 17:37:48 13° ENE visible
28 Sep -2.0 19:08:49 10° WNW 19:10:48 33° WNW 19:10:48 33° WNW visible
29 Sep -3.6 18:21:53 10° WNW 18:25:14 60° NNE 18:25:39 54° ENE visible
30 Sep -3.2 17:34:57 10° WNW 17:38:15 47° NNE 17:40:32 18° E visible
30 Sep -1.5 19:11:52 10° WNW 19:13:31 25° W 19:13:31 25° W visible
01 Oct -3.7 18:24:51 10° WNW 18:28:13 67° SSW 18:28:27 64° S visible
02 Oct -3.8 17:37:54 10° WNW 17:41:17 85° NNE 17:43:27 21° ESE visible
02 Oct -0.9 19:15:22 10° W 19:16:27 15° WSW 19:16:27 15° WSW visible
03 Oct -2.2 18:28:03 10° W 18:30:59 28° SW 18:31:31 26° SSW visible
